Location: Monesma
(41.9244°N, 0.0622°E)
Time: 00:06:08
(UTC+00:00)

Daily predictions for brighter satellites

Satellite Brightness Start Highest point End
(mag) Time Altitude Azimuth Time Altitude Azimuth Time Altitude Azimuth
ADEOS II 4.0 02:16:14 10° NNE 02:18:19 25° NNE 02:18:19 25° NNE
IDEFIX/ARIANE 42P 4.3 02:18:50 10° NE 02:22:24 28° ENE 02:22:24 28° ENE
Cosmos 1980 Rocket 3.5 02:47:20 32° N 02:47:20 32° N 02:50:31 10° NNE
Cosmos 2263 Rocket 4.2 02:43:47 10° NNW 02:57:28 - SSE 02:45:20 19° NNW
Cosmos 2322 Rocket 3.0 02:54:21 44° ESE 02:54:29 44° ESE 02:59:52 10° NE
Lacrosse 5 3.8 03:01:39 20° N 03:01:39 20° N 03:04:44 10° NNE
SL-16 R/B 2.4 03:06:39 68° E 03:06:39 68° E 03:12:06 10° NNE
Resurs 1-4 Rocket 4.5 03:07:32 10° NNW 03:08:01 12° NNW 03:08:01 12° NNW
Cosmos 1339 Rocket 4.3 03:12:47 85° W 03:12:48 85° W 03:19:02 10° N
Cosmos 1937 Rocket 4.4 03:12:29 10° N 03:17:26 46° ENE 03:22:21 10° SE
CZ-2D R/B 4.5 03:14:36 10° NNW 03:14:55 11° NNW 03:14:55 11° NNW
Cosmos 1763 Rocket 3.4 03:25:16 88° NE 03:25:16 88° NE 03:30:33 10° NNE
Cosmos 1536 4.4 03:21:46 10° N 03:25:33 35° ENE 03:29:17 10° SE
ARIANE 5 R/B 3.2 03:26:45 10° N 03:30:25 41° NNW 03:30:25 41° NNW
IRIDIUM 103 4.3 03:26:27 10° N 03:31:42 80° E 03:33:37 40° SSE
NOSS 3-4 (A) 4.3 03:25:27 10° NNW 03:32:25 61° NE 03:40:06 10° SE
NOSS 3-4 (C) 4.3 03:25:34 10° NNW 03:32:31 61° NE 03:40:12 10° SE
Cosmos 1707 Rocket 3.8 03:32:27 63° ESE 03:32:37 64° E 03:36:55 10° NNE
USA 267 3.2 03:28:47 10° NE 03:35:18 71° NW 03:36:57 51° W
ADEOS Rocket 4.3 03:30:45 10° SE 03:36:54 42° ENE 03:42:29 10° N
Cosmos 540 Rocket 3.8 03:38:54 36° S 03:40:54 63° ESE 03:46:02 10° NNE
ERS-2 4.0 03:37:45 10° SE 03:41:01 31° ENE 03:44:17 10° N
Meteor 1-5 Rocket 4.0 03:36:51 10° NNW 03:42:00 61° W 03:42:00 61° W
Cosmos 44 Rocket 3.2 03:44:48 66° SSW 03:45:27 82° ESE 03:50:19 10° NE
MSX 3.7 03:40:54 10° N 03:46:41 74° WNW 03:48:33 44° SW
Cosmos 1733 Rocket 3.9 03:44:35 10° N 03:48:49 49° ENE 03:53:00 10° SSE
IRIDIUM 106 4.2 03:44:47 10° N 03:50:00 71° W 03:51:57 38° SSW
Gbstr 26 Del rocket 4.4 03:46:18 29° WNW 03:50:38 63° SW 03:57:44 10° SE
Cosmos 990 Rocket 3.9 03:46:35 10° NNW 03:51:41 57° WSW 03:56:46 10° S
Meteor 1-10 Rocket 4.4 03:51:45 48° WSW 03:52:45 54° WNW 03:58:31 10° N
PAYLOAD A 3.9 03:49:28 10° NNE 03:54:10 72° ESE 03:57:12 22° S
Landsat 5 3.5 03:49:53 10° SSE 03:54:24 86° WSW 03:58:52 10° NNW
Cosmos 2333 Rocket 4.1 03:49:46 10° SSE 03:54:38 29° ESE 03:59:32 10° NE
ATLAS 2AS CENTAUR R/B 3.1 03:48:47 10° NNW 03:56:14 69° NE 04:03:04 10° SE
Cosmos 2173 Rocket 4.3 03:50:50 10° N 03:57:11 70° E 04:03:32 10° SSE
SL-4 R/B 2.8 03:57:30 41° NW 03:58:11 44° NNW 04:02:45 10° NE
BREEZE M DEB (TANK) 3.6 03:44:07 10° WNW 03:58:16 68° SW 04:02:23 10° SE
CZ-2C R/B 3.5 03:56:06 10° N 03:58:54 39° NNW 03:58:54 39° NNW
Cosmos 468 Rocket 4.5 03:59:52 40° WNW 04:00:13 40° WNW 04:05:11 10° N
ADEOS II 4.0 03:57:38 10° NNW 03:59:15 14° NW 03:59:15 14° NW
Cosmos 1570 Rocket 3.9 03:58:30 31° SSW 04:01:08 88° WNW 04:06:32 10° NNE
BREEZE-M DEB (TANK) 3.0 03:59:36 35° WSW 04:02:41 88° NNW 04:05:59 10° ENE
IDEFIX/ARIANE 42P 3.2 03:58:15 10° N 04:03:01 35° WNW 04:03:12 35° WNW
PSLV R/B 3.4 03:59:14 10° NNE 04:03:26 83° E 04:05:43 26° S
USA 276 3.6 04:03:18 29° N 04:04:01 32° NNE 04:06:58 10° E
Cosmos 1862 Rocket 3.7 04:03:35 13° S 04:07:27 74° E 04:11:48 10° NNE
CSL-04 DEB 4.4 04:03:27 10° S 04:07:44 66° WSW 04:12:07 10° NNW
BREEZE-M DEB (TANK) 3.8 04:08:00 31° NW 04:08:58 37° N 04:15:25 10° ENE
USA 234 3.4 04:02:37 10° ESE 04:09:08 75° NE 04:15:40 10° NW
H-2A R/B 2.1 04:08:23 10° S 04:12:42 57° W 04:17:08 10° NNW
CZ-4C R/B 4.2 04:07:03 10° NNW 04:13:44 40° NE 04:21:21 10° ESE
ALOS 3.6 04:12:53 10° NNE 04:17:18 41° E 04:21:41 10° SSE
PKM 4.1 04:14:43 17° NW 04:17:28 68° NE 04:21:27 10° SE
Cosmos 2360 Rocket 2.1 04:15:02 23° SW 04:18:39 72° WNW 04:24:20 10° NNE
CZ-2C R/B 2.5 04:20:01 10° N 04:25:09 66° WNW 04:30:17 10° SSW
Cosmos 372 Rocket 3.9 04:23:27 10° NNW 04:28:37 86° WSW 04:33:42 10° SSE
Cosmos 2016 Rocket 4.0 04:22:50 10° N 04:28:59 82° E 04:35:05 10° S
Cosmos 1000 Rocket 4.4 04:24:07 10° SSW 04:30:14 65° W 04:36:21 10° N
Cosmos 1484 Rocket 3.3 04:30:35 10° NNE 04:34:34 63° E 04:38:32 10° S
ATLAS CENTAUR Rocket 4.1 04:28:24 19° WSW 04:35:15 31° SSW 04:39:46 10° SE
Cosmos 2061 Rocket 4.1 04:29:22 10° N 04:35:52 89° WSW 04:42:17 10° S
Cosmos 1515 4.2 04:32:13 10° S 04:35:56 60° E 04:39:40 10° NNE
X-37B 2.2 04:36:50 20° SSW 04:36:50 20° SSW 04:39:03 10° SSE
Cosmos 1844 Rocket 2.6 04:31:53 10° NNW 04:37:34 79° WSW 04:43:12 10° SSE
Cosmos 2322 Rocket 3.2 04:36:12 21° W 04:38:41 29° NW 04:43:37 10° N
Cosmos 2278 Rocket 4.5 04:37:31 10° N 04:42:09 25° NE 04:46:47 10° ESE
Okean 1 3.2 04:39:52 10° S 04:43:54 79° W 04:47:59 10° N
Lacrosse 5 4.2 04:42:52 10° NNW 04:45:35 14° N 04:48:20 10° NE
Cosmos 1844 3.6 04:40:45 10° NNW 04:46:21 82° WSW 04:51:54 10° SSE
COSMO-SKYMED 1 4.0 04:42:36 10° SE 04:46:40 41° ENE 04:50:46 10° N
Meteor 1-31 Rocket 3.0 04:43:38 10° NNE 04:47:28 72° ESE 04:51:19 10° S
Cosmos 1864 Rocket 4.4 04:44:10 10° N 04:50:25 81° W 04:56:34 10° S
Cosmos 1437 Rocket 2.8 04:47:01 10° SSW 04:50:43 50° WNW 04:54:28 10° N
SL-16 R/B 3.6 04:48:33 15° W 04:51:06 20° NW 04:55:14 10° N
Cosmos 1725 Rocket 3.9 04:45:29 10° N 04:51:40 81° W 04:57:50 10° S
Meteor 2-9 Rocket 4.5 04:46:53 10° N 04:52:20 70° ENE 04:57:39 10° SSE
Cosmos 2298 Rocket 4.0 04:48:08 10° NNW 04:53:27 78° WSW 04:58:44 10° SSE
deb Chang Zheng 4 3.5 04:50:16 10° N 04:54:31 62° WNW 04:58:42 10° SSW
Cosmos 1536 4.4 04:59:01 10° NW 05:01:38 17° W 05:04:15 10° SW
Cosmos 1782 Rocket 4.1 04:58:17 10° N 05:02:44 65° E 05:07:09 10° SSE
Cosmos 1703 Rocket 3.5 04:59:27 10° SSW 05:03:46 77° W 05:08:08 10° N
Cosmos 1908 Rocket 3.6 04:59:32 10° NNW 05:03:59 66° W 05:08:24 10° S
Cosmos 1459 Rocket 4.5 04:58:56 10° NNW 05:04:20 35° W 05:09:42 10° SSW
Okean 1-7 2.9 05:00:07 10° S 05:04:22 84° W 05:08:38 10° N
Cosmos 2219 Rocket 2.2 05:00:52 10° SSW 05:06:32 81° WNW 05:12:15 10° NNE
Intercosmos 25 3.8 05:05:54 10° SW 05:09:19 30° W 05:12:13 10° NNW
Cosmos 1802 Rocket 4.4 05:05:04 10° NNW 05:10:46 39° W 05:16:32 10° SSW
CZ-4B R/B 2.8 05:07:29 10° NNE 05:11:05 78° ESE 05:14:39 10° S
CZ-4B R/B 2.2 05:09:08 10° SSW 05:11:55 28° W 05:14:46 10° NW
Cosmos 1125 Rocket 3.5 05:07:20 10° NNW 05:12:39 85° WSW 05:17:53 10° SSE
Meteor 2-4 Rocket 3.9 05:08:09 10° S 05:13:36 76° E 05:18:58 10° NNE
ERS-2 3.6 05:12:12 10° SW 05:14:37 17° W 05:17:02 10° NW
CZ-4B R/B 4.3 05:11:23 10° N 05:15:42 55° WNW 05:20:05 10° SSW
USA 267 4.4 05:12:06 10° NE 05:17:39 31° NNW 05:23:10 10° WNW
Cosmos 2123 Rocket 4.3 05:13:05 10° SSW 05:19:01 45° WNW 05:25:03 10° N
Cosmos 2150 Rocket 4.3 05:15:45 10° NNW 05:20:58 48° WSW 05:26:05 10° S
ADEOS Rocket 3.8 05:16:36 10° SSW 05:22:27 32° W 05:27:50 10° NW
ARGOS Delta rocket 4.3 05:18:06 10° NNE 05:22:40 67° E 05:27:27 10° S
Cosmos 1544 3.9 05:21:53 10° NNW 05:24:59 27° W 05:28:03 10° SSW
ATLAS CENTAUR R/B 2.4 05:18:58 10° NW 05:25:50 69° NE 05:28:47 10° SE
Cosmos 2237 Rocket 3.3 05:20:53 10° S 05:26:17 49° ESE 05:31:42 10° NE
